WetterOnline ( https://www.wetteronline.de )

Wetter aktuell Dachshof

Aktuelles Wetter: Mühlacker (245m)

6-stündlich | Neueste Meldungen
Ortszeit Temperatur Wetter
Do, 20.02. 7:00 1.8° C bedeckt
Do, 20.02. 1:00 0.1° C leichter Regen
Mi, 19.02. 19:00 5.6° C bewölkt
Mi, 19.02. 13:00 5.4° C wolkig
Mi, 19.02. 7:00 5.8° C Sprühregen
Mi, 19.02. 1:00 5.8° C wolkig
Di, 18.02. 19:00 7.2° C bewölkt
Di, 18.02. 13:00 7.3° C wolkig
Ortszeit Temperatur Wetter
Do, 20.02. 8:00 2.5° C bewölkt
Do, 20.02. 7:50 2.5° C bewölkt
Do, 20.02. 7:40 2.5° C wolkig
Do, 20.02. 7:30 2.2° C bedeckt
Do, 20.02. 7:20 2.2° C bedeckt
Do, 20.02. 7:10 1.9° C bedeckt
Do, 20.02. 7:00 1.8° C bedeckt
Do, 20.02. 6:30 2.0° C bedeckt
Do, 20.02. 6:00 2.1° C bewölkt
Do, 20.02. 5:30 2.6° C bedeckt
Do, 20.02. 5:00 1.6° C bedeckt
Do, 20.02. 4:30 1.4° C bedeckt
Ortszeit Relative Feuchte Sichtweite
Do, 20.02. 7:00 97% 28 km
Do, 20.02. 1:00 97% 25 km
Mi, 19.02. 19:00 62% 65 km
Mi, 19.02. 13:00 81% 45 km
Mi, 19.02. 7:00 79% 40 km
Mi, 19.02. 1:00 70% 70 km
Di, 18.02. 19:00 60% 70 km
Di, 18.02. 13:00 65% 55 km
Ortszeit Relative Feuchte Sichtweite
Do, 20.02. 8:00 96% 40 km
Do, 20.02. 7:50 96% -
Do, 20.02. 7:40 96% -
Do, 20.02. 7:30 98% 40 km
Do, 20.02. 7:20 98% -
Do, 20.02. 7:10 96% -
Do, 20.02. 7:00 97% 28 km
Do, 20.02. 6:30 96% 30 km
Do, 20.02. 6:00 94% 30 km
Do, 20.02. 5:30 89% 40 km
Do, 20.02. 5:00 96% 35 km
Do, 20.02. 4:30 97% 25 km
Ortszeit Niederschlagsmenge Niederschlagsart
Do, 20.02. 7:00 0.1 l/m2 in 12 Std. Regen
Do, 20.02. 1:00 0.1 l/m2 in 6 Std. Regen
Mi, 19.02. 19:00 2 l/m2 in 12 Std. Regen
Mi, 19.02. 13:00 2 l/m2 in 6 Std. Regen
Mi, 19.02. 7:00 0.2 l/m2 in 12 Std. Regen
Mi, 19.02. 1:00 0.1 l/m2 in 6 Std. Regen
Di, 18.02. 19:00 0.1 l/m2 in 12 Std. Regen
Di, 18.02. 13:00 0.1 l/m2 in 6 Std. Regen
Ortszeit Niederschlagsmenge Niederschlagsart
Do, 20.02. 8:00 0.0 l/m2 in 1 Std. -
Do, 20.02. 7:50 keine Meldung -
Do, 20.02. 7:40 keine Meldung -
Do, 20.02. 7:30 0.0 l/m2 in 1 Std. -
Do, 20.02. 7:20 keine Meldung -
Do, 20.02. 7:10 keine Meldung -
Do, 20.02. 7:00 0.0 l/m2 in 1 Std. Regen
Do, 20.02. 6:30 0.0 l/m2 in 1 Std. -
Do, 20.02. 6:00 0.0 l/m2 in 1 Std. -
Do, 20.02. 5:30 0.0 l/m2 in 1 Std. -
Do, 20.02. 5:00 0.0 l/m2 in 1 Std. -
Do, 20.02. 4:30 0.0 l/m2 in 1 Std. -
Ortszeit Stärke Spitze Richtung
km/h Bft. km/h Grad Sektor
Do, 20.02. 7:00 0 0 4 - -
Do, 20.02. 1:00 0 0 - - -
Mi, 19.02. 19:00 14 3 43 260° W
Mi, 19.02. 13:00 25 4 58 250° W
Mi, 19.02. 7:00 18 3 43 250° W
Mi, 19.02. 1:00 9 2 26 230° SW
Di, 18.02. 19:00 9 2 48 260° W
Di, 18.02. 13:00 26 4 48 260° W
Ortszeit Stärke Spitze Richtung
km/h Bft. km/h Grad Sektor
Do, 20.02. 8:00 2 1 6 100° O
Do, 20.02. 7:50 2 1 - 100° O
Do, 20.02. 7:40 0 0 - 110° O
Do, 20.02. 7:30 0 0 4 - -
Do, 20.02. 7:20 2 1 - 100° O
Do, 20.02. 7:10 0 0 - - -
Do, 20.02. 7:00 0 0 4 - -
Do, 20.02. 6:30 0 0 4 - -
Do, 20.02. 6:00 4 1 11 120° SO
Do, 20.02. 5:30 6 1 9 110° O
Do, 20.02. 5:00 4 1 - 80° O
Do, 20.02. 4:30 0 0 0 - -
Ortszeit Untergrenze Bedeckung Gattung
total tief tief mittel hoch
Do, 20.02. 7:00 1020 m 8/8 8/8 - - -
Do, 20.02. 1:00 1410 m 8/8 8/8 - - -
Mi, 19.02. 19:00 1500 m 7/8 7/8 - - -
Mi, 19.02. 13:00 480 m 6/8 6/8 - - -
Mi, 19.02. 7:00 780 m 7/8 7/8 - - -
Mi, 19.02. 1:00 1200 m 8/8 3/8 - - -
Di, 18.02. 19:00 1800 m 7/8 7/8 - - -
Di, 18.02. 13:00 840 m 6/8 6/8 - - -
Ortszeit Bedeckungsgrad in Achtel und Wolkenuntergrenze
Do, 20.02. 8:00 5(660m) 8(3000m) 8(3900m)
Do, 20.02. 7:50 5(660m) 8(3000m) 8(3900m)
Do, 20.02. 7:40 2(660m) 8(3000m) 8(3900m)
Do, 20.02. 7:30 3(1080m) 6(1320m) 8(1500m)
Do, 20.02. 7:20 3(1080m) 6(1320m) 8(1500m)
Do, 20.02. 7:10 2(1020m) 8(1500m) 8(3300m)
Do, 20.02. 7:00 2(1020m) 8(2400m) 8(3300m)
Do, 20.02. 6:30 7(1500m) 8(2100m) 8(2400m)
Do, 20.02. 6:00 7(1500m) 7(2100m) 7(2400m)
Do, 20.02. 5:30 1(1260m) 8(1500m)
Do, 20.02. 5:00 1(1500m) 7(2100m) 8(2400m)
Do, 20.02. 4:30 6(900m) 7(1800m) 8(2400m)
Ortszeit Luftdruck NN (hPa) Tendenz (hPa in 3 Std.)
Do, 20.02. 7:00 1024 - 0,9
Do, 20.02. 1:00 1026 - 0,6
Mi, 19.02. 19:00 1026 + 1,6
Mi, 19.02. 13:00 1023 + 2,6
Mi, 19.02. 7:00 1019 - 2,1
Mi, 19.02. 1:00 1024 - 2,4
Di, 18.02. 19:00 1027 - 0,3
Di, 18.02. 13:00 1029 + 0,2
Ortszeit Luftdruck NN (hPa) Tendenz (hPa in 3 Std.)
Do, 20.02. 8:00 1024 - 0,5
Do, 20.02. 7:50 1024 keine Meldung
Do, 20.02. 7:40 1024 keine Meldung
Do, 20.02. 7:30 1024 - 0,8
Do, 20.02. 7:20 1024 keine Meldung
Do, 20.02. 7:10 1024 keine Meldung
Do, 20.02. 7:00 1024 - 0,9
Do, 20.02. 6:30 1024 - 0,8
Do, 20.02. 6:00 1024 - 0,8
Do, 20.02. 5:30 1024 - 1,0
Do, 20.02. 5:00 1024 - 1,4
Do, 20.02. 4:30 1025 - 1,5
Ortszeit Schneehöhe (cm)
Do, 20.02. 7:00 0
Do, 20.02. 1:00 0
Mi, 19.02. 19:00 0
Mi, 19.02. 13:00 0
Mi, 19.02. 7:00 0
Mi, 19.02. 1:00 0
Di, 18.02. 19:00 0
Di, 18.02. 13:00 0
Ortszeit Schneehöhe (cm)
Do, 20.02. 8:00 0
Do, 20.02. 7:50 0
Do, 20.02. 7:40 0
Do, 20.02. 7:30 0
Do, 20.02. 7:20 0
Do, 20.02. 7:10 0
Do, 20.02. 7:00 0
Do, 20.02. 6:30 0
Do, 20.02. 6:00 0
Do, 20.02. 5:30 0
Do, 20.02. 5:00 0
Do, 20.02. 4:30 0
Link zu dieser Seite / Seite empfehlen

Das Wetter in ...